Weather History for Berlin, NH

Change the Weather History Date:

Tuesday, January 21, 2003

  Actual Average Record
Temperature  
Mean Temperature -4 °F -  
Max Temperature 1 °F 19 °F 55 °F (2006)
Min Temperature -8 °F 0 °F -20 °F (2005)
Degree Days  
Heating Degree Days 68    
Moisture  
Dew Point -15 °F    
Average Humidity 57    
Maximum Humidity 72    
Minimum Humidity 43    
Precipitation  
Precipitation 0.00 in - - ()
Sea Level Pressure  
Sea Level Pressure 29.76 in    
Wind  
Wind Speed 9 mph (NNW)    
Max Wind Speed 17 mph    
Max Gust Speed 28 mph    
Visibility 9 miles    
Events Snow    
Averages and records for this station are not official NWS values.
T = Trace of Precipitation, MM = Missing Value Source: NWS Daily Summary

Daily Weather History Graph

Daily Weather History Graph

Search for Another Location

Airport:

Trip Planner

Search our weather history database for the weather conditions in past years. The results will help you decide how hot, cold, wet, or windy it might be!

Date:

Astronomy

Jan. 21, 2003 Rise Set
Actual Time 7:14 AM EST 4:38 PM EST
Civil Twilight 6:42 AM EST 5:10 PM EST
Nautical Twilight 6:06 AM EST 5:45 PM EST
Astronomical Twilight 5:32 AM EST 6:20 PM EST
Moon 8:29 PM EST (1/21) 9:30 AM EST (1/21)
Length of Visible Light 10h 27m
Length of Day
9h 23m
Waning Gibbous, 87% of the Moon is Illuminated
Jan 21
Waning Gibbous
Jan 25
Last Quarter
Feb 1
New
Feb 9
First Quarter
Feb 16
Full

Hourly Weather History & Observations

Time (EST) Temp. Windchill Dew Point Humidity Pressure Visibility Wind Dir Wind Speed Gust Speed Precip Events Conditions
12:01 AM 1.4 °F -11.3 °F -5.8 °F 72% 29.63 in 4.0 mi Variable 6.9 mph - 0.00 in Snow Light Snow
12:38 AM 1.4 °F -14.5 °F -9.4 °F 61% 29.64 in 9.0 mi North 10.4 mph 26.5 mph 0.00 in   Scattered Clouds
12:52 AM 1.0 °F -16.6 °F -8.0 °F 66% 29.72 in 6.0 mi North 12.7 mph 21.9 mph 0.00 in   Mostly Cloudy
1:43 AM -0.4 °F -12.0 °F -7.6 °F 72% 29.69 in 3.0 mi Variable 5.8 mph 21.9 mph 0.00 in Snow Light Snow
1:52 AM -0.0 °F -16.3 °F -8.0 °F 69% 29.77 in 4.0 mi North 10.4 mph - 0.00 in Snow Light Snow
2:01 AM -0.4 °F -12.0 °F -9.4 °F 66% 29.69 in 8.0 mi Variable 5.8 mph - 0.00 in   Overcast
2:31 AM -0.4 °F -14.7 °F -9.4 °F 66% 29.70 in 10.0 mi NW 8.1 mph - 0.00 in   Mostly Cloudy
2:52 AM -0.9 °F -12.7 °F -9.9 °F 66% 29.78 in 8.0 mi Variable 5.8 mph - 0.00 in   Partly Cloudy
3:52 AM -2.9 °F -16.5 °F -11.9 °F 65% 29.78 in 10.0 mi Variable 6.9 mph - N/A   Clear
4:52 AM -4.0 °F -23.7 °F -13.0 °F 65% 29.78 in 9.0 mi WNW 13.8 mph 19.6 mph N/A   Clear
5:52 AM -4.0 °F -14.6 °F -13.0 °F 65% 29.80 in 10.0 mi Variable 4.6 mph - N/A   Clear
6:52 AM -5.1 °F -20.4 °F -14.1 °F 65% 29.81 in 6.0 mi North 8.1 mph 18.4 mph N/A   Haze
6:59 AM -5.8 °F -22.4 °F -14.8 °F 65% 29.72 in 7.0 mi NNW 9.2 mph - N/A   Scattered Clouds
7:52 AM -6.0 °F -21.5 °F -14.1 °F 68% 29.82 in 10.0 mi NNW 8.1 mph - N/A   Clear
8:52 AM -4.0 °F -20.2 °F -16.1 °F 56% 29.82 in 10.0 mi NW 9.2 mph - N/A   Clear
9:52 AM -4.0 °F -23.7 °F -16.1 °F 56% 29.80 in 10.0 mi North 13.8 mph 23.0 mph N/A   Clear
10:39 AM -2.2 °F -19.9 °F -16.6 °F 50% 29.69 in 10.0 mi North 11.5 mph 25.3 mph N/A   Clear
10:52 AM -2.0 °F -17.7 °F -17.0 °F 49% 29.78 in 10.0 mi North 9.2 mph 21.9 mph N/A   Clear
11:52 AM -0.9 °F -17.4 °F -17.0 °F 47% 29.78 in 10.0 mi North 10.4 mph 19.6 mph N/A   Clear
12:52 PM -0.0 °F -20.7 °F -17.0 °F 45% 29.78 in 10.0 mi North 17.3 mph 27.6 mph N/A   Clear
1:52 PM -0.9 °F -18.3 °F -16.1 °F 49% 29.76 in 10.0 mi West 11.5 mph - N/A   Partly Cloudy
2:52 PM -0.0 °F -18.0 °F -17.0 °F 45% 29.76 in 10.0 mi North 12.7 mph 21.9 mph N/A   Mostly Cloudy
3:52 PM -0.0 °F -15.3 °F -18.0 °F 43% 29.76 in 10.0 mi WNW 9.2 mph 20.7 mph N/A   Partly Cloudy
4:52 PM -2.9 °F -20.8 °F -18.9 °F 46% 29.76 in 10.0 mi West 11.5 mph 17.3 mph N/A   Clear
5:52 PM -4.0 °F - -18.9 °F 49% 29.78 in 10.0 mi North - - N/A   Clear
6:52 PM -6.0 °F -20.1 °F -18.9 °F 54% 29.78 in 10.0 mi North 6.9 mph 17.3 mph N/A   Clear
7:52 PM -7.1 °F -25.0 °F -20.0 °F 53% 29.80 in 10.0 mi North 10.4 mph 16.1 mph N/A   Clear
8:52 PM -8.0 °F -22.5 °F -20.9 °F 53% 29.81 in 10.0 mi Variable 6.9 mph 17.3 mph N/A   Scattered Clouds
9:52 PM -8.0 °F -28.8 °F -20.9 °F 53% 29.78 in 10.0 mi North 13.8 mph 21.9 mph N/A   Mostly Cloudy
10:52 PM -8.0 °F -26.1 °F -20.9 °F 53% 29.78 in 10.0 mi NW 10.4 mph 16.1 mph N/A   Scattered Clouds
11:52 PM -8.0 °F -22.5 °F -22.0 °F 50% 29.75 in 10.0 mi Variable 6.9 mph - N/A   Clear